Location: ????????
(55.4000°N, 39.1167°E)
Time: 06:39:53
(UTC+00:00)

ATLAS 3B R/B - Pass Details

Date: 19 May 2025
Orbit: 935 x 1258 km, 63.8° (Epoch: 23 June)

Event Time Altitude Azimuth Distance (km) Brightness Sun altitude
Exits shadow 19:42:59 15° 160° (SSE) 2,731 4.2 -11.9°
Maximum altitude 19:47:43 28° 112° (ESE) 2,103 3.9 -12.1°
Drops below altitude 10° 19:54:03 10° 58° (ENE) 3,229 5.4 -12.5°
Sets 19:57:18 0° 48° (NE) 4,215 6.1 -12.6°
